Orbital Elements at Epoch 2459200.5 (2020-Dec-17.0) TDB
Reference: JPL 22 (heliocentric ecliptic J2000)
Element | Value | Uncertainty (1-sigma) | Units |
e | .310854610412699 | 4.7314e-08 | |
a | 2.382301249032292 | 1.259e-08 | au |
q | 1.641751922378673 | 1.1553e-07 | au |
i | 23.59629166421291 | 4.0956e-06 | deg |
node | 98.26363896204775 | 1.2773e-05 | deg |
peri | 260.513812163148 | 1.3479e-05 | deg |
M | 318.3588117600741 | 6.3209e-06 | deg |
tp | 2459355.851001535051 (2021-May-21.35100154) | 2.4184e-05 | TDB |
period | 1343.05390687665 3.68 | 1.0647e-05 2.915e-08 | d yr |
n | .2680458305930556 | 2.1249e-09 | deg/d |
Q | 3.122850575685911 | 1.6504e-08 | au |
|
| | Orbit Determination Parameters
Additional Information
|